| time (UTC) | temp F | wind direction | speed MPH | gust MPH | rain 1hr in | rain 24hr in | rain mn in | humidity % | barometer mb |
| 20260505053524 | 68 | 235 | 2.0 | 7.0 | 0.00 | 0.00 | 0.00 | 80 | 1009.7 |
| 20260505053003 | 68 | 173 | 2.0 | 7.0 | 0.00 | 0.00 | 0.00 | 80 | 1009.8 |
| 20260505052503 | 68 | 234 | 1.0 | 7.0 | 0.00 | 0.00 | 0.00 | 80 | 1009.7 |
| 20260505052003 | 68 | 262 | 1.0 | 6.0 | 0.00 | 0.00 | 0.00 | 80 | 1009.7 |
| 20260505051503 | 68 | 163 | 2.0 | 8.0 | 0.00 | 0.00 | 0.00 | 80 | 1009.6 |
| 20260505051003 | 69 | 117 | 2.0 | 8.0 | 0.00 | 0.00 | 0.00 | 79 | 1009.7 |
| 20260505050503 | 69 | 113 | 2.0 | 10.0 | 0.00 | 0.00 | 0.00 | 79 | 1009.7 |
| 20260505041503 | 70 | 169 | 2.0 | 8.0 | 0.00 | 0.00 | 0.00 | 76 | 1009.9 |
| 20260505041003 | 70 | 239 | 2.0 | 8.0 | 0.00 | 0.00 | 0.00 | 76 | 1010.0 |
| 20260505040503 | 70 | 238 | 2.0 | 10.0 | 0.00 | 0.00 | 0.00 | 76 | 1010.0 |
| 20260505040004 | 70 | 238 | 3.0 | 11.0 | 0.00 | 0.00 | 0.00 | 76 | 1010.1 |
| 20260505035524 | 70 | 179 | 3.0 | 11.0 | 0.00 | 0.00 | 0.00 | 75 | 1010.0 |
| 20260505035003 | 70 | 161 | 3.0 | 9.0 | 0.00 | 0.00 | 0.00 | 75 | 1010.0 |
| 20260505034503 | 70 | 189 | 3.0 | 9.0 | 0.00 | 0.00 | 0.00 | 75 | 1009.9 |
| 20260505034003 | 70 | 113 | 2.0 | 7.0 | 0.00 | 0.00 | 0.00 | 75 | 1010.0 |
| 20260505033503 | 70 | 104 | 2.0 | 7.0 | 0.00 | 0.00 | 0.00 | 75 | 1009.9 |
| 20260505033003 | 70 | 121 | 2.0 | 8.0 | 0.00 | 0.00 | 0.00 | 75 | 1009.9 |
| 20260505032503 | 70 | 130 | 2.0 | 8.0 | 0.00 | 0.00 | 0.00 | 74 | 1009.9 |
| 20260505032003 | 70 | 285 | 2.0 | 8.0 | 0.00 | 0.00 | 0.00 | 74 | 1010.0 |
| 20260505031503 | 70 | 306 | 2.0 | 10.0 | 0.00 | 0.00 | 0.00 | 74 | 1009.9 |
| 20260505031003 | 71 | 98 | 3.0 | 11.0 | 0.00 | 0.00 | 0.00 | 74 | 1009.8 |
| 20260505030524 | 70 | 100 | 2.0 | 11.0 | 0.00 | 0.00 | 0.00 | 74 | 1009.8 |
| 20260505030003 | 71 | 96 | 1.0 | 7.0 | 0.00 | 0.00 | 0.00 | 74 | 1009.9 |
| 20260505025503 | 71 | 132 | 2.0 | 9.0 | 0.00 | 0.00 | 0.00 | 73 | 1010.1 |
| 20260505025003 | 71 | 159 | 2.0 | 9.0 | 0.00 | 0.00 | 0.00 | 73 | 1010.2 |
| 20260505024503 | 71 | 170 | 2.0 | 7.0 | 0.00 | 0.00 | 0.00 | 72 | 1010.2 |
| 20260505024003 | 71 | 127 | 2.0 | 11.0 | 0.00 | 0.00 | 0.00 | 72 | 1010.1 |
| 20260505023503 | 71 | 148 | 3.0 | 11.0 | 0.00 | 0.00 | 0.00 | 72 | 1010.1 |
| 20260505023003 | 71 | 131 | 2.0 | 7.0 | 0.00 | 0.00 | 0.00 | 72 | 1010.1 |
| 20260505022503 | 71 | 125 | 2.0 | 8.0 | 0.00 | 0.00 | 0.00 | 72 | 1010.0 |
| 20260505022003 | 72 | 182 | 2.0 | 10.0 | 0.00 | 0.00 | 0.00 | 71 | 1010.0 |
| 20260505021503 | 72 | 214 | 2.0 | 10.0 | 0.00 | 0.00 | 0.00 | 71 | 1009.9 |
| 20260505021024 | 72 | 133 | 2.0 | 9.0 | 0.00 | 0.00 | 0.00 | 71 | 1009.8 |
| 20260505020524 | 72 | 97 | 2.0 | 9.0 | 0.00 | 0.00 | 0.00 | 71 | 1009.6 |
| 20260505020003 | 72 | 154 | 2.0 | 9.0 | 0.00 | 0.00 | 0.00 | 70 | 1009.6 |
| 20260505015503 | 72 | 272 | 2.0 | 9.0 | 0.00 | 0.00 | 0.00 | 70 | 1009.6 |
| 20260505015003 | 72 | 293 | 2.0 | 7.0 | 0.00 | 0.00 | 0.00 | 70 | 1009.6 |
| 20260505014503 | 72 | 222 | 1.0 | 5.0 | 0.00 | 0.00 | 0.00 | 70 | 1009.4 |
| 20260505014024 | 72 | 231 | 1.0 | 4.0 | 0.00 | 0.00 | 0.00 | 70 | 1009.3 |
| 20260505013524 | 72 | 248 | 0.0 | 3.0 | 0.00 | 0.00 | 0.00 | 69 | 1009.3 |
| 20260505013003 | 73 | 266 | 1.0 | 5.0 | 0.00 | 0.00 | 0.00 | 68 | 1009.3 |
| 20260505012503 | 73 | 326 | 1.0 | 5.0 | 0.00 | 0.00 | 0.00 | 68 | 1009.3 |
| 20260505012003 | 73 | 312 | 1.0 | 4.0 | 0.00 | 0.00 | 0.00 | 68 | 1009.2 |
| 20260505011524 | 73 | 275 | 1.0 | 5.0 | 0.00 | 0.00 | 0.00 | 68 | 1009.1 |
| 20260505011003 | 73 | 137 | 1.0 | 6.0 | 0.00 | 0.00 | 0.00 | 68 | 1009.1 |
| 20260505010503 | 73 | 134 | 1.0 | 7.0 | 0.00 | 0.00 | 0.00 | 67 | 1009.1 |
| 20260505010003 | 74 | 158 | 1.0 | 7.0 | 0.00 | 0.00 | 0.00 | 67 | 1009.4 |
| 20260505005503 | 74 | 217 | 1.0 | 3.0 | 0.00 | 0.00 | 0.00 | 66 | 1009.5 |
| 20260505005003 | 74 | 210 | 0.0 | 3.0 | 0.00 | 0.00 | 0.00 | 65 | 1009.4 |
| 20260505004503 | 74 | 138 | 1.0 | 3.0 | 0.00 | 0.00 | 0.00 | 65 | 1009.4 |
| 20260505004003 | 75 | 218 | 1.0 | 8.0 | 0.00 | 0.00 | 0.00 | 64 | 1009.4 |
| 20260505003503 | 75 | 215 | 2.0 | 8.0 | 0.00 | 0.00 | 0.00 | 63 | 1009.4 |
| 20260505003003 | 75 | 192 | 1.0 | 8.0 | 0.00 | 0.00 | 0.00 | 63 | 1009.4 |
| 20260505002503 | 76 | 232 | 2.0 | 9.0 | 0.00 | 0.00 | 0.00 | 62 | 1009.4 |
| 20260505002003 | 76 | 248 | 2.0 | 9.0 | 0.00 | 0.00 | 0.00 | 62 | 1009.3 |
| 20260505001503 | 76 | 235 | 1.0 | 4.0 | 0.00 | 0.00 | 0.00 | 62 | 1009.4 |
| 20260505001003 | 76 | 158 | 1.0 | 9.0 | 0.00 | 0.00 | 0.00 | 61 | 1009.5 |
| 20260505000503 | 76 | 182 | 2.0 | 9.0 | 0.00 | 0.00 | 0.00 | 60 | 1009.6 |
| 20260505000003 | 77 | 151 | 2.0 | 9.0 | 0.00 | 0.00 | 0.00 | 61 | 1009.6 |
| 20260504235503 | 77 | 127 | 3.0 | 11.0 | 0.00 | 0.00 | 0.00 | 60 | 1009.5 |
| 20260504235003 | 77 | 141 | 3.0 | 11.0 | 0.00 | 0.00 | 0.00 | 59 | 1009.6 |
| 20260504234503 | 78 | 187 | 2.0 | 8.0 | 0.00 | 0.00 | 0.00 | 58 | 1009.7 |
| 20260504234003 | 78 | 101 | 3.0 | 11.0 | 0.00 | 0.00 | 0.00 | 57 | 1009.7 |
| 20260504233503 | 78 | 117 | 4.0 | 11.0 | 0.00 | 0.00 | 0.00 | 57 | 1009.7 |
| 20260504233003 | 78 | 132 | 3.0 | 10.0 | 0.00 | 0.00 | 0.00 | 58 | 1009.6 |
| 20260504232503 | 79 | 127 | 2.0 | 8.0 | 0.00 | 0.00 | 0.00 | 57 | 1009.7 |
| 20260504232003 | 79 | 101 | 2.0 | 8.0 | 0.00 | 0.00 | 0.00 | 56 | 1009.8 |
| 20260504231503 | 79 | 136 | 2.0 | 8.0 | 0.00 | 0.00 | 0.00 | 58 | 1009.9 |
| 20260504231003 | 79 | 164 | 2.0 | 9.0 | 0.00 | 0.00 | 0.00 | 57 | 1010.0 |
| 20260504230524 | 79 | 167 | 2.0 | 9.0 | 0.00 | 0.00 | 0.00 | 55 | 1010.0 |
| 20260504230003 | 79 | 239 | 3.0 | 9.0 | 0.00 | 0.00 | 0.00 | 54 | 1009.9 |
| 20260504225524 | 80 | 253 | 3.0 | 9.0 | 0.00 | 0.00 | 0.00 | 54 | 1010.0 |
| 20260504225003 | 79 | 254 | 3.0 | 12.0 | 0.00 | 0.00 | 0.00 | 54 | 1010.1 |
| 20260504224503 | 79 | 214 | 4.0 | 13.0 | 0.00 | 0.00 | 0.00 | 53 | 1010.2 |
| 20260504224003 | 80 | 165 | 4.0 | 13.0 | 0.00 | 0.00 | 0.00 | 53 | 1010.2 |
| 20260504223503 | 80 | 125 | 4.0 | 12.0 | 0.00 | 0.00 | 0.00 | 52 | 1010.1 |
| 20260504223003 | 80 | 149 | 4.0 | 12.0 | 0.00 | 0.00 | 0.00 | 52 | 1010.2 |
| 20260504222503 | 80 | 178 | 3.0 | 8.0 | 0.00 | 0.00 | 0.00 | 51 | 1010.1 |
| 20260504222003 | 80 | 197 | 4.0 | 14.0 | 0.00 | 0.00 | 0.00 | 51 | 1010.1 |
| 20260504221503 | 80 | 135 | 5.0 | 14.0 | 0.00 | 0.00 | 0.00 | 51 | 1010.7 |
| 20260504221003 | 80 | 209 | 5.0 | 12.0 | 0.00 | 0.00 | 0.00 | 50 | 1010.5 |
| 20260504220503 | 80 | 251 | 5.0 | 11.0 | 0.00 | 0.00 | 0.00 | 50 | 1010.8 |
| 20260504220003 | 80 | 249 | 4.0 | 10.0 | 0.00 | 0.00 | 0.00 | 50 | 1010.7 |
| 20260504215503 | 80 | 249 | 4.0 | 12.0 | 0.00 | 0.00 | 0.00 | 49 | 1010.8 |
| 20260504215003 | 80 | 264 | 3.0 | 12.0 | 0.00 | 0.00 | 0.00 | 50 | 1010.9 |
| 20260504214503 | 80 | 305 | 3.0 | 11.0 | 0.00 | 0.00 | 0.00 | 47 | 1010.8 |
| 20260504214004 | 80 | 268 | 4.0 | 12.0 | 0.00 | 0.00 | 0.00 | 49 | 1010.8 |
| 20260504213503 | 80 | 257 | 4.0 | 12.0 | 0.00 | 0.00 | 0.00 | 49 | 1011.0 |
| 20260504213003 | 80 | 262 | 4.0 | 11.0 | 0.00 | 0.00 | 0.00 | 48 | 1011.1 |
| 20260504212503 | 80 | 244 | 3.0 | 9.0 | 0.00 | 0.00 | 0.00 | 51 | 1011.2 |
| 20260504212003 | 80 | 169 | 3.0 | 14.0 | 0.00 | 0.00 | 0.00 | 47 | 1011.2 |
| 20260504211524 | 80 | 149 | 3.0 | 14.0 | 0.00 | 0.00 | 0.00 | 47 | 1011.3 |
| 20260504211003 | 80 | 129 | 3.0 | 10.0 | 0.00 | 0.00 | 0.00 | 49 | 1011.4 |
| 20260504210503 | 80 | 139 | 4.0 | 10.0 | 0.00 | 0.00 | 0.00 | 46 | 1011.3 |
| 20260504210003 | 80 | 159 | 4.0 | 10.0 | 0.00 | 0.00 | 0.00 | 48 | 1011.4 |
| 20260504205524 | 80 | 151 | 3.0 | 10.0 | 0.00 | 0.00 | 0.00 | 44 | 1011.5 |
| 20260504205003 | 81 | 173 | 2.0 | 7.0 | 0.00 | 0.00 | 0.00 | 47 | 1011.5 |
| 20260504204503 | 80 | 144 | 3.0 | 11.0 | 0.00 | 0.00 | 0.00 | 45 | 1011.6 |
| 20260504204003 | 80 | 130 | 4.0 | 11.0 | 0.00 | 0.00 | 0.00 | 45 | 1011.8 |
| 20260504203504 | 80 | 166 | 4.0 | 11.0 | 0.00 | 0.00 | 0.00 | 46 | 1011.8 |
| 20260504203003 | 80 | 251 | 5.0 | 11.0 | 0.00 | 0.00 | 0.00 | 46 | 1011.9 |
| 20260504202503 | 80 | 259 | 6.0 | 12.0 | 0.00 | 0.00 | 0.00 | 42 | 1012.2 |
| 20260504202004 | 80 | 210 | 6.0 | 13.0 | 0.00 | 0.00 | 0.00 | 44 | 1012.2 |
| 20260504201503 | 80 | 138 | 5.0 | 13.0 | 0.00 | 0.00 | 0.00 | 45 | 1012.3 |
| 20260504201003 | 80 | 216 | 3.0 | 11.0 | 0.00 | 0.00 | 0.00 | 44 | 1012.4 |
| 20260504200524 | 80 | 247 | 4.0 | 11.0 | 0.00 | 0.00 | 0.00 | 44 | 1012.5 |
| 20260504200003 | 80 | 221 | 3.0 | 10.0 | 0.00 | 0.00 | 0.00 | 45 | 1012.6 |
| 20260504195503 | 80 | 236 | 4.0 | 11.0 | 0.00 | 0.00 | 0.00 | 45 | 1012.7 |
| 20260504195003 | 80 | 214 | 4.0 | 11.0 | 0.00 | 0.00 | 0.00 | 43 | 1012.7 |
| 20260504194524 | 80 | 120 | 3.0 | 8.0 | 0.00 | 0.00 | 0.00 | 48 | 1012.7 |
| 20260504194003 | 80 | 214 | 3.0 | 8.0 | 0.00 | 0.00 | 0.00 | 50 | 1012.8 |
| 20260504193503 | 79 | 203 | 3.0 | 8.0 | 0.00 | 0.00 | 0.00 | 47 | 1012.8 |
| 20260504193003 | 79 | 145 | 3.0 | 9.0 | 0.00 | 0.00 | 0.00 | 46 | 1013.1 |
| 20260504192503 | 79 | 216 | 4.0 | 14.0 | 0.00 | 0.00 | 0.00 | 45 | 1013.1 |
| 20260504192003 | 78 | 235 | 4.0 | 14.0 | 0.00 | 0.00 | 0.00 | 48 | 1013.1 |
| 20260504191503 | 78 | 162 | 4.0 | 12.0 | 0.00 | 0.00 | 0.00 | 48 | 1013.2 |
| 20260504191003 | 78 | 273 | 3.0 | 8.0 | 0.00 | 0.00 | 0.00 | 45 | 1013.2 |
| 20260504190504 | 78 | 263 | 4.0 | 12.0 | 0.00 | 0.00 | 0.00 | 46 | 1013.4 |
| 20260504190003 | 78 | 251 | 4.0 | 14.0 | 0.00 | 0.00 | 0.00 | 45 | 1013.6 |
| 20260504185503 | 78 | 108 | 4.0 | 14.0 | 0.00 | 0.00 | 0.00 | 44 | 1013.7 |
| 20260504185003 | 79 | 234 | 3.0 | 13.0 | 0.00 | 0.00 | 0.00 | 47 | 1013.7 |
| 20260504184503 | 78 | 195 | 4.0 | 10.0 | 0.00 | 0.00 | 0.00 | 48 | 1013.7 |
| 20260504184003 | 78 | 238 | 5.0 | 13.0 | 0.00 | 0.00 | 0.00 | 45 | 1013.8 |
| 20260504183504 | 77 | 253 | 6.0 | 13.0 | 0.00 | 0.00 | 0.00 | 49 | 1013.8 |
| 20260504183003 | 78 | 223 | 4.0 | 12.0 | 0.00 | 0.00 | 0.00 | 48 | 1014.0 |
| 20260504182503 | 78 | 163 | 5.0 | 12.0 | 0.00 | 0.00 | 0.00 | 50 | 1014.0 |
| 20260504182003 | 78 | 169 | 6.0 | 13.0 | 0.00 | 0.00 | 0.00 | 45 | 1014.2 |
| 20260504181503 | 78 | 135 | 5.0 | 13.0 | 0.00 | 0.00 | 0.00 | 51 | 1014.1 |
| 20260504181003 | 77 | 132 | 4.0 | 13.0 | 0.00 | 0.00 | 0.00 | 47 | 1014.3 |
| 20260504180524 | 77 | 252 | 4.0 | 10.0 | 0.00 | 0.00 | 0.00 | 49 | 1014.5 |
| 20260504180003 | 76 | 251 | 4.0 | 13.0 | 0.00 | 0.00 | 0.00 | 50 | 1014.8 |
| 20260504175503 | 77 | 252 | 4.0 | 13.0 | 0.00 | 0.00 | 0.00 | 50 | 1014.8 |
| 20260504175003 | 76 | 198 | 4.0 | 12.0 | 0.00 | 0.00 | 0.00 | 51 | 1014.9 |
| 20260504174503 | 77 | 116 | 5.0 | 12.0 | 0.00 | 0.00 | 0.00 | 53 | 1014.9 |
| 20260504174003 | 76 | 110 | 5.0 | 12.0 | 0.00 | 0.00 | 0.00 | 54 | 1014.9 |
| 20260504173524 | 76 | 116 | 6.0 | 19.0 | 0.00 | 0.00 | 0.00 | 49 | 1015.0 |
| 20260504173003 | 76 | 127 | 6.0 | 19.0 | 0.00 | 0.00 | 0.00 | 50 | 1014.9 |
| 20260504172503 | 75 | 143 | 6.0 | 15.0 | 0.00 | 0.00 | 0.00 | 51 | 1014.9 |
| 20260504172003 | 76 | 131 | 6.0 | 15.0 | 0.00 | 0.00 | 0.00 | 51 | 1014.9 |
| 20260504171503 | 75 | 137 | 5.0 | 16.0 | 0.00 | 0.00 | 0.00 | 51 | 1015.1 |
| 20260504171003 | 75 | 218 | 5.0 | 16.0 | 0.00 | 0.00 | 0.00 | 50 | 1015.2 |
| 20260504170525 | 75 | 225 | 4.0 | 16.0 | 0.00 | 0.00 | 0.00 | 53 | 1015.3 |
| 20260504151003 | 71 | 138 | 3.0 | 9.0 | 0.00 | 0.00 | 0.00 | 67 | 1015.8 |
| 20260504150524 | 71 | 160 | 4.0 | 9.0 | 0.00 | 0.00 | 0.00 | 66 | 1016.0 |
| 20260504141003 | 66 | 280 | 1.0 | 7.0 | 0.00 | 0.00 | 0.00 | 72 | 1016.3 |
| 20260504140503 | 66 | 294 | 1.0 | 7.0 | 0.00 | 0.00 | 0.00 | 72 | 1016.1 |
| 20260504130503 | 61 | 0 | 0.0 | 0.0 | 0.00 | 0.00 | 0.00 | 79 | 1016.0 |
| 20260504110503 | 52 | 0 | 0.0 | 0.0 | 0.00 | 0.00 | 0.00 | 90 | 1015.4 |
| 20260504100503 | 53 | 0 | 0.0 | 0.0 | 0.00 | 0.00 | 0.00 | 88 | 1016.1 |
| 20260504081503 | 55 | 264 | 0.0 | 1.0 | 0.00 | 0.00 | 0.00 | 86 | 1015.9 |
| 20260504081003 | 55 | 264 | 0.0 | 1.0 | 0.00 | 0.00 | 0.00 | 86 | 1016.0 |
| 20260504080503 | 55 | 0 | 0.0 | 0.0 | 0.00 | 0.00 | 0.00 | 87 | 1016.0 |